Miscellaneous Local Product
Issued by NWS Hastings, NE

Home | Current Version | Previous Version | Graphics & Text | Print | Product List | Glossary On
Versions: 1 2 3 4 5 6 7 8 9 10 11 12 13 14 15 16 17 18 19 20 21 22 23 24 25 26 27 28 29 30 31 32 33 34 35 36 37 38 39 40 41 42 43 44 45 46 47 48 49 50
372
AXUS43 KGID 180902
MISGRI

GID CWA HOURLY WEATHER ROUNDUP
NATIONAL WEATHER SERVICE HASTINGS NE
400 AM CDT FRI AUG 18 2017

NOTE: "FAIR" INDICATES FEW OR NO CLOUDS BELOW 12,000 FEET WITH NO
SIGNIFICANT WEATHER AND/OR OBSTRUCTIONS TO VISIBILITY.

...SOUTH CENTRAL NEBRASKA...

CITY           SKY/WX    TMP DP  RH WIND       PRES   REMARKS
GRAND ISLAND   MOCLDY    64  61  90 SE3       29.99F
HASTINGS       CLOUDY    66  57  72 NE10      30.01R
KEARNEY        CLOUDY    65  58  78 E10       29.98F
ORD            PTCLDY    61  57  87 S5        29.91S
YORK           CLOUDY    64  61  88 N5        29.99R
AURORA         CLOUDY    64  60  89 CALM      29.99F
LEXINGTON      PTCLDY    65  57  74 E3        29.99R
HOLDREGE       CLOUDY    64  57  79 NE7       30.01R
HEBRON         MOCLDY    67  61  82 CALM      29.94R

...NEBRASKA PANHANDLE...

CITY           SKY/WX    TMP DP  RH WIND       PRES   REMARKS
CHADRON        CLEAR     52  49  89 W8        30.05S
ALLIANCE       CLEAR     49  47  93 MISG      30.08S
SCOTTSBLUFF    CLEAR     54  49  83 NW6       30.10S
SIDNEY         CLOUDY    54  49  83 NW10      30.11F

...WESTERN AND NORTH CENTRAL NEBRASKA...

CITY           SKY/WX    TMP DP  RH WIND       PRES   REMARKS
VALENTINE      CLEAR     60  54  80 SW6       29.97R
AINSWORTH      CLEAR     59  58  97 SW12      29.97S
ONEILL         CLOUDY    60  60 100 CALM      29.93R
BROKEN BOW     CLEAR     61  58  90 NW3       29.97F
IMPERIAL       PTCLDY    58  55  90 N5        30.02S
NORTH PLATTE   CLOUDY    60  57  89 CALM      30.01F
MCCOOK         CLOUDY    64  58  80 NE5       29.99R

...EASTERN NEBRASKA...

CITY           SKY/WX    TMP DP  RH WIND       PRES   REMARKS
NORFOLK        LGT RAIN  64  60  87 S16       29.91F
SO SIOUX CITY  MOCLDY    67  66  97 CALM      29.87F
TEKAMAH        PTCLDY    65  62  90 CALM      29.91F
COLUMBUS       LGT RAIN  64  62  93 CALM      29.97R
ALBION         MOCLDY    65  60  83 E6        29.88F
OMAHA EPPLEY   CLOUDY    69  61  75 NE5       29.94R
OFFUTT AFB     CLOUDY    65  61  85 NW5       29.94R
MILLARD        CLOUDY    72  63  73 N3        29.93F
LINCOLN        CLOUDY    68  61  78 CALM      29.95F
NEBRASKA CITY  CLOUDY    67  63  86 NW6       29.94R
BEATRICE       CLOUDY    68  62  80 N7        29.96R
FALLS CITY     CLOUDY    61  58  90 CALM      29.91F

...NORTHERN KANSAS...

CITY           SKY/WX    TMP DP  RH WIND       PRES   REMARKS
GOODLAND       CLEAR     61  55  81 S13       30.02F
HILL CITY      CLEAR     65  58  78 SW5       29.96S
NORTON         SUNNY     61  52  72 W7        29.98R
PHILLIPSBURG   CLEAR     66  55  68 N10       29.98R
SMITH CENTER   CLEAR     61  57  88 N7        29.97R
HAYS           CLEAR     63  59  87 S8        29.96S
RUSSELL        CLEAR     64  60  87 S12       29.93R
CONCORDIA      CLOUDY    71  62  73 CALM      29.93R
SALINA         CLOUDY    72  62  71 S12G22    29.88F
TOPEKA         CLOUDY    64  62  93 CALM      29.94F



USA.gov is the U.S. government's official web portal to all federal, state and local government web resources and services.